[[{"header":{"parameterUnit":"m.s-1","parameterCategory":1,"la1":30.2991,"la2":30.254,"lo1":-89.0895,"lo2":-89.0444,"dy":0.0017,"dx":0.0017,"nx":28,"ny":28,"refTime":"2024-03-16T21:00:00:Z","depth":0,"parameterNumber":2,"parameterNumberName":"U-component_of_WINDS"},"data":[0,0,0,0,0,0,0,0,0,0,0,0,0,0,0,0,0,0,0,0,0,0,0,0,0,0,0,0,0,0,0,0,0,0,0,0,0,0,0,0,0,0,0,0,0,0,0,0,0,0,0,0,0,0,0,0,0,0,1.9102,1.9102,0,1.9111,1.9111,1.9111,1.9113,1.9113,1.9113,1.9113,1.9123,1.9123,1.9124,0,0,0,0,0,0,0,0,0,0,0,0,0,1.9087,1.9088,1.9102,1.9102,1.9102,1.9111,1.9111,1.9111,1.9113,1.9113,1.9113,1.9113,1.9123,1.9123,1.9124,0,0,0,0,0,0,0,0,0,0,0,0,0,1.9095,1.9088,1.9102,1.9104,1.9104,1.9111,1.9111,1.9111,1.9113,1.9113,1.9113,1.9113,1.9123,1.9123,1.9124,1.9129,0,0,1.9125,1.9125,0,0,0,0,0,0,0,0,1.9094,1.9095,1.9104,1.9104,1.9104,1.9111,1.911,1.9117,1.9113,1.911,1.9113,1.9113,1.9119,1.912,1.9122,1.9129,1.913,1.9125,1.9126,1.9126,1.9126,0,0,0,0,0,0,0,1.9094,1.9095,1.9105,1.9104,1.9104,1.9105,1.9106,1.9111,1.9115,1.911,1.911,1.9112,1.9119,1.9121,1.9122,1.913,1.9125,1.9126,1.9126,1.9126,1.9144,1.9144,0,0,0,0,0,0,1.9093,1.9095,1.9105,1.9106,1.9099,1.9106,1.9107,1.9109,1.9115,1.9116,1.9112,1.9112,1.9121,1.9122,1.9122,1.913,1.9126,1.9126,1.9127,1.9144,1.9144,1.9144,0,0,0,0,0,0,1.9092,1.9094,1.9105,1.91,1.9102,1.9106,1.9108,1.9109,1.9111,1.9116,1.9117,1.9113,1.9121,1.9122,1.9128,1.913,1.9126,1.9127,1.9144,1.9144,1.9144,1.9143,0,0,0,0,0,0,1.9092,1.9094,1.9095,1.91,1.9102,1.9109,1.9109,1.9109,1.9112,1.9112,1.9117,1.9118,1.9121,1.9127,1.9128,1.9131,1.9127,1.9143,1.9144,1.9144,1.9143,1.9144,1.9144,0,0,0,0,0,1.9092,1.9094,1.9095,1.9096,1.9103,1.9109,1.911,1.9113,1.9112,1.9114,1.9118,1.9118,1.913,1.9127,1.9129,1.9132,1.9143,1.9144,1.9144,1.9143,1.9144,1.9144,0,0,0,0,0,0,1.9088,1.9094,1.9096,1.91,1.9104,1.9109,1.9111,1.9113,1.9117,1.9117,1.9121,1.9122,1.9128,1.913,1.9128,1.9138,1.9137,1.9137,1.9136,1.9136,1.9136,1.9135,1.9128,0,0,0,0,0,1.9088,1.9091,1.9097,1.91,1.9102,1.9107,1.9109,1.9111,1.9116,1.9117,1.9121,1.9126,1.9131,1.9134,1.9138,1.9144,1.9146,1.9147,1.9148,1.9148,1.9148,1.9153,1.9154,1.9146,1.9146,1.9146,0,0,1.9087,1.9091,1.9093,1.91,1.9103,1.9108,1.9108,1.9112,1.9116,1.9118,1.9124,1.9127,1.9133,1.9139,1.9142,1.9141,1.9151,1.9148,1.9149,1.9149,1.9153,1.9154,1.9155,1.9146,1.9146,1.9146,0,0,1.9088,1.9091,1.9095,1.9099,1.9105,1.9108,1.9109,1.9115,1.9117,1.9123,1.9126,1.913,1.9138,1.9143,1.9146,1.9152,1.9153,1.9153,1.9155,1.916,1.916,1.9161,1.9163,1.9164,1.9154,1.9154,1.9154,0,1.9086,1.9093,1.9096,1.9101,1.9104,1.9108,1.9112,1.9116,1.9123,1.9125,1.9125,1.9137,1.914,1.9148,1.915,1.9153,1.9154,1.9152,1.916,1.916,1.9161,1.9164,1.9165,1.9154,1.9154,1.9154,1.9154,0,1.9091,1.9095,1.9098,1.9105,1.9109,1.9113,1.9119,1.9122,1.9125,1.9129,1.9136,1.9141,1.9148,1.915,1.9152,1.9159,1.9159,1.9159,1.9158,1.9162,1.9164,1.9165,1.9154,1.9154,1.9154,1.9154,0,0,1.9088,1.9099,1.9099,1.9104,1.9111,1.9115,1.9121,1.9128,1.9131,1.9137,1.9142,1.915,1.9151,1.9155,1.9158,1.9162,1.9167,1.9162,1.9162,1.9163,1.9177,1.9176,1.9177,1.9169,1.9169,1.9169,1.9176,0,1.909,1.9099,1.9104,1.9111,1.9116,1.9121,1.9126,1.9132,1.9136,1.9142,1.9147,1.9153,1.9153,1.9156,1.9161,1.9166,1.917,1.9165,1.9174,1.9174,1.9172,1.9178,1.9177,1.9183,1.9177,1.9177,1.9177,0,1.9092,1.9099,1.9107,1.9116,1.9118,1.9122,1.913,1.9135,1.9143,1.9146,1.9151,1.9155,1.9162,1.9161,1.9172,1.9168,1.9173,1.9176,1.9177,1.9177,1.9175,1.9178,1.9185,1.9185,1.9179,1.9179,1.9179,0,1.909,1.91,1.9107,1.911,1.912,1.9124,1.9128,1.9136,1.914,1.9147,1.9151,1.9159,1.9163,1.9169,1.9175,1.9174,1.9186,1.9185,1.9189,1.9189,1.919,1.919,1.9197,1.9194,1.9193,1.9193,1.9193,0,1.9091,1.9096,1.9106,1.911,1.9116,1.9122,1.9129,1.9134,1.9141,1.9147,1.9152,1.9157,1.9165,1.9172,1.9177,1.9185,1.9187,1.919,1.9192,1.919,1.9189,1.9192,1.9191,1.9194,1.9194,1.9194,1.9194,0,1.9088,1.9095,1.9102,1.9113,1.9115,1.912,1.9129,1.9133,1.9139,1.9146,1.9149,1.9157,1.9166,1.9173,1.9184,1.9188,1.9197,1.9198,1.9194,1.9194,1.9198,1.9197,1.9206,1.9208,1.9204,1.9204,1.9204,0,1.9088,1.9092,1.9103,1.9107,1.9112,1.9119,1.9124,1.9131,1.9137,1.9147,1.9151,1.916,1.9167,1.9181,1.9189,1.9198,1.9199,1.9202,1.9201,1.9199,1.92,1.9199,1.92,1.9202,1.9202,1.9202,1.9202,0,1.9087,1.9091,1.9098,1.9107,1.9113,1.912,1.9127,1.9131,1.914,1.9146,1.9155,1.9161,1.9173,1.9182,1.9193,1.9198,1.9202,1.9203,1.9204,1.9202,1.9199,1.9201,1.9194,1.9202,1.9202,1.9202,1.9202,1.9202,1.9086,1.909,1.9099,1.9107,1.9114,1.9121,1.9127,1.9134,1.9141,1.9152,1.9156,1.9166,1.9175,1.919,1.9196,1.9204,1.9204,1.9206,1.9206,1.9207,1.9206,1.9199,1.9206,1.9206,1.9206,1.9206,1.9206,0,1.9086,1.9092,1.91,1.911,1.9117,1.9121,1.913,1.9135,1.9144,1.9152,1.916,1.9172,1.9181,1.9191,1.9201,1.9206,1.9208,1.9209,1.9208,1.9209,1.9205,1.9203,1.9207,1.9207,1.9207,1.9207,1.9207,1.9207,1.9086,1.9094,1.9099,1.9111,1.9118,1.9127,1.9132,1.914,1.9147,1.9159,1.9168,1.9174,1.9184,1.9195,1.9205,1.9207,1.9211,1.9211,1.9214,1.921,1.9209,1.9209,1.9207,1.9212,1.9212,1.9217,1.9217,1.9217]},{"header":{"parameterUnit":"m.s-1","parameterCategory":1,"la1":30.2991,"la2":30.254,"lo1":-89.0895,"lo2":-89.0444,"dy":0.0017,"dx":0.0017,"nx":28,"ny":28,"refTime":"2024-03-16T21:00:00:Z","depth":0,"parameterNumber":3,"parameterNumberName":"V-component_of_WINDS"},"data":[0,0,0,0,0,0,0,0,0,0,0,0,0,0,0,0,0,0,0,0,0,0,0,0,0,0,0,0,0,0,0,0,0,0,0,0,0,0,0,0,0,0,0,0,0,0,0,0,0,0,0,0,0,0,0,0,0,0,-7.2432,-7.2432,0,-7.2488,-7.2488,-7.2489,-7.243,-7.2427,-7.2425,-7.2423,-7.2474,-7.2478,-7.2481,0,0,0,0,0,0,0,0,0,0,0,0,0,-7.2271,-7.2274,-7.2432,-7.2432,-7.2433,-7.2487,-7.2488,-7.2489,-7.243,-7.2427,-7.2424,-7.2422,-7.2473,-7.2477,-7.2482,0,0,0,0,0,0,0,0,0,0,0,0,0,-7.2335,-7.2275,-7.2431,-7.241,-7.2409,-7.2487,-7.2488,-7.2489,-7.243,-7.2427,-7.2424,-7.2421,-7.2472,-7.2477,-7.2482,-7.2582,0,0,-7.2498,-7.25,0,0,0,0,0,0,0,0,-7.2331,-7.2341,-7.2413,-7.2412,-7.2411,-7.2448,-7.245,-7.252,-7.2431,-7.2422,-7.2423,-7.2419,-7.2468,-7.2473,-7.2491,-7.2585,-7.2587,-7.2499,-7.2502,-7.2504,-7.2505,0,0,0,0,0,0,0,-7.2327,-7.2338,-7.2453,-7.2414,-7.2413,-7.2397,-7.2402,-7.2463,-7.2463,-7.2423,-7.2419,-7.2426,-7.2467,-7.2486,-7.2492,-7.2588,-7.2498,-7.2503,-7.2506,-7.2508,-7.2769,-7.2773,0,0,0,0,0,0,-7.2325,-7.2335,-7.2452,-7.2455,-7.2362,-7.2403,-7.2409,-7.2439,-7.2462,-7.2463,-7.2429,-7.2423,-7.2479,-7.2486,-7.2493,-7.2614,-7.2504,-7.2509,-7.2512,-7.2766,-7.277,-7.2774,0,0,0,0,0,0,-7.2322,-7.2336,-7.2449,-7.2394,-7.2407,-7.2409,-7.2444,-7.2442,-7.2462,-7.2467,-7.2467,-7.2449,-7.2477,-7.2486,-7.2562,-7.2615,-7.2511,-7.2516,-7.2761,-7.2767,-7.2772,-7.2855,0,0,0,0,0,0,-7.2318,-7.2336,-7.2374,-7.2395,-7.241,-7.2518,-7.2447,-7.2446,-7.2472,-7.2465,-7.2486,-7.2486,-7.2475,-7.2554,-7.2567,-7.262,-7.252,-7.2756,-7.2764,-7.277,-7.2848,-7.2863,-7.2876,0,0,0,0,0,-7.2312,-7.2393,-7.2376,-7.2391,-7.2459,-7.2521,-7.2529,-7.2516,-7.2476,-7.2515,-7.2519,-7.2486,-7.2608,-7.2563,-7.2576,-7.2632,-7.2753,-7.2762,-7.277,-7.2841,-7.286,-7.2876,0,0,0,0,0,0,-7.2375,-7.2395,-7.2377,-7.2467,-7.2494,-7.2511,-7.2559,-7.2536,-7.2572,-7.2563,-7.2544,-7.2549,-7.263,-7.2638,-7.2588,-7.2732,-7.2673,-7.2685,-7.2723,-7.2741,-7.2755,-7.2751,-7.2524,0,0,0,0,0,-7.24,-7.245,-7.2465,-7.2543,-7.2558,-7.2557,-7.2583,-7.2571,-7.2596,-7.2606,-7.2615,-7.264,-7.2684,-7.2713,-7.2753,-7.2849,-7.2853,-7.2894,-7.2909,-7.292,-7.293,-7.2984,-7.3003,-7.2802,-7.2802,-7.2802,0,0,-7.245,-7.2468,-7.25,-7.2556,-7.2575,-7.2627,-7.2566,-7.2622,-7.266,-7.2614,-7.2687,-7.2695,-7.2721,-7.2808,-7.2847,-7.2818,-7.2987,-7.2931,-7.2941,-7.2944,-7.2995,-7.3014,-7.303,-7.2808,-7.2807,-7.2806,0,0,-7.257,-7.2588,-7.2657,-7.2678,-7.2708,-7.2708,-7.2725,-7.2747,-7.2752,-7.2825,-7.2792,-7.2837,-7.2912,-7.2933,-7.2954,-7.3086,-7.3057,-7.31,-7.3173,-7.3226,-7.3242,-7.3255,-7.3304,-7.3321,-7.311,-7.311,-7.311,0,-7.2628,-7.2706,-7.2694,-7.2755,-7.2781,-7.2745,-7.2814,-7.2835,-7.2876,-7.2894,-7.2862,-7.2959,-7.2973,-7.3066,-7.3099,-7.3116,-7.3135,-7.3096,-7.3241,-7.3254,-7.3267,-7.3313,-7.3331,-7.3115,-7.3114,-7.3114,-7.3113,0,-7.2778,-7.2833,-7.2885,-7.2929,-7.2961,-7.3026,-7.3023,-7.3056,-7.3043,-7.3046,-7.3122,-7.314,-7.3184,-7.3206,-7.3191,-7.3297,-7.3278,-7.3244,-7.3185,-7.3292,-7.3334,-7.3351,-7.3122,-7.312,-7.3119,-7.3118,0,0,-7.2934,-7.2975,-7.2994,-7.3015,-7.3048,-7.309,-7.3154,-7.3201,-7.323,-7.3261,-7.3314,-7.3381,-7.3351,-7.3374,-7.3362,-7.3408,-7.3514,-7.3368,-7.3369,-7.3395,-7.3633,-7.3659,-7.368,-7.3496,-7.3499,-7.3502,-7.3631,0,-7.3055,-7.3168,-7.3161,-7.3266,-7.3318,-7.3287,-7.3342,-7.3368,-7.3374,-7.3418,-7.3423,-7.3471,-7.3427,-7.3441,-7.3486,-7.3492,-7.3562,-7.3482,-7.3544,-7.3547,-7.3539,-7.3702,-7.3728,-7.385,-7.3648,-7.3651,-7.3653,0,-7.321,-7.325,-7.3362,-7.3391,-7.3412,-7.3463,-7.3507,-7.3549,-7.3579,-7.358,-7.3609,-7.359,-7.3654,-7.3595,-7.3684,-7.363,-7.3656,-7.3663,-7.3667,-7.3672,-7.3606,-7.3711,-7.3888,-7.3906,-7.3679,-7.3677,-7.3675,0,-7.3314,-7.3396,-7.3475,-7.3494,-7.3529,-7.3565,-7.3581,-7.3608,-7.3638,-7.3675,-7.3695,-7.3739,-7.3763,-7.3797,-7.3791,-7.3749,-7.3882,-7.3822,-7.3884,-7.3885,-7.3912,-7.3911,-7.4096,-7.3929,-7.3929,-7.3929,-7.3928,0,-7.345,-7.352,-7.3523,-7.3571,-7.3649,-7.364,-7.3717,-7.3729,-7.3754,-7.3803,-7.3778,-7.3824,-7.3814,-7.386,-7.3856,-7.3931,-7.3942,-7.3944,-7.3942,-7.3946,-7.3946,-7.3962,-7.3953,-7.3934,-7.3933,-7.3932,-7.3931,0,-7.3578,-7.3583,-7.3667,-7.3695,-7.3704,-7.3761,-7.3784,-7.383,-7.3835,-7.3898,-7.3912,-7.392,-7.3973,-7.3972,-7.4031,-7.4029,-7.4121,-7.4109,-7.4112,-7.411,-7.4172,-7.4167,-7.4374,-7.4401,-7.4217,-7.4218,-7.422,0,-7.3664,-7.3718,-7.3754,-7.3787,-7.3806,-7.3859,-7.3891,-7.3885,-7.3918,-7.3959,-7.4,-7.4052,-7.4093,-7.4181,-7.419,-7.4237,-7.4226,-7.4296,-7.4232,-7.4236,-7.4228,-7.4225,-7.423,-7.4307,-7.431,-7.4311,-7.4313,0,-7.3816,-7.3818,-7.3865,-7.3915,-7.3954,-7.3992,-7.4027,-7.4055,-7.4053,-7.4092,-7.4149,-7.4182,-7.4246,-7.4298,-7.4343,-7.4358,-7.4336,-7.4333,-7.435,-7.4355,-7.4354,-7.4356,-7.4146,-7.4328,-7.4326,-7.4325,-7.4324,-7.4324,-7.3926,-7.3974,-7.4008,-7.4063,-7.409,-7.4124,-7.4169,-7.4182,-7.423,-7.4283,-7.4277,-7.434,-7.4371,-7.443,-7.445,-7.4499,-7.4474,-7.4498,-7.4505,-7.4511,-7.4518,-7.4348,-7.4507,-7.4507,-7.4506,-7.4506,-7.4506,0,-7.4078,-7.41,-7.415,-7.4203,-7.4246,-7.4225,-7.4263,-7.43,-7.4357,-7.4389,-7.4432,-7.4498,-7.455,-7.4566,-7.4616,-7.4652,-7.4643,-7.4665,-7.4662,-7.4666,-7.4537,-7.4518,-7.4672,-7.4672,-7.4672,-7.4672,-7.4672,-7.4672,-7.4162,-7.4242,-7.4248,-7.4342,-7.4362,-7.4427,-7.4451,-7.4483,-7.4508,-7.4585,-7.4629,-7.464,-7.4666,-7.4718,-7.4765,-7.4768,-7.4787,-7.4814,-7.4813,-7.4692,-7.4675,-7.4659,-7.4641,-7.4819,-7.4819,-7.4938,-7.494,-7.494]}]]